Flag for Germany Weather past 2 weeks in Westerstede, Lower Saxony, Germany

Now
63 °F

Fog.


Feels Like: 63 °F
Forecast: 57 / 74 °F
Wind: 5 mph from East

Location: Wittmundhaven

Current Time: Sep 15, 2014 at 11:32:49 AM

Latest Report: Sep 15, 2014 at 10:20 AM


Visibility: 2 mi

Pressure: 30.09 "Hg

Humidity: 94%

Dew point: 61 °F

Location of WesterstedeLocation

Historic Weather in Westerstede — Graph

°F

Westerstede temperature yesterday

Maximum temperature yesterday: 66 °F (at 4:20 PM)
Minimum temperature yesterday: 55 °F (at 5:20 AM)
Average temperature yesterday: 61 °F

Past Weeks' High & Low Weather Summary

 TemperatureHumidityPressure
High75 °F (Sep 5, 4:20 PM)100% (Sep 2, 1:20 AM)30.33 "Hg (Sep 2, 1:20 AM)
Low48 °F (Sep 12, 4:20 AM)53% (Sep 3, 1:20 PM)29.86 "Hg (Sep 6, 5:20 PM)
Average61 °F84%30.10 "Hg
* Reported Aug 31 10:20 AM — Sep 15 10:20 AM, Westerstede, Weather by CustomWeather, © 2014

Note: Actual official high and low records may vary slightly from our data, if they occured in-between our weather recording intervals... More about our weather records

Advertising

Westerstede weather history for previous 24 hours

 ConditionsComfort  
Time TempWeatherWind HumidityBarometerVisibility
10:20 AM
Sep 15
63 °FFog.5 mph94%30.09 "Hg2 mi
9:20 AM63 °FFog.5 mph94%30.09 "Hg2 mi
8:20 AM61 °FFog.2 mph94%30.09 "Hg1 mi
7:20 AM59 °FFog.2 mph100%30.09 "Hg1 mi
6:20 AM59 °FFog.5 mph100%30.09 "Hg3 mi
5:20 AM59 °FFog.6 mph100%30.09 "Hg3 mi
4:20 AM61 °FPassing clouds.2 mph94%30.09 "Hg4 mi
3:20 AM61 °FPassing clouds.3 mph94%30.09 "Hg4 mi
2:20 AM61 °FPassing clouds.6 mph94%30.12 "Hg4 mi
1:20 AM59 °FPassing clouds.6 mph100%30.12 "Hg4 mi
12:20 AM59 °FPassing clouds.5 mph94%30.12 "HgN/A
11:20 PM
Sep 14
59 °FPassing clouds.5 mph94%30.12 "HgN/A
10:20 PM61 °FPassing clouds.6 mph88%30.12 "HgN/A
9:20 PM61 °FPassing clouds.5 mph88%30.12 "HgN/A
8:20 PM61 °FPartly sunny.5 mph88%30.12 "HgN/A
7:20 PM63 °FPassing clouds.5 mph83%30.12 "HgN/A
6:20 PM64 °FScattered clouds.7 mph78%30.12 "HgN/A
5:20 PM64 °FPartly sunny.7 mph78%30.12 "HgN/A
4:20 PM66 °FScattered clouds.6 mph68%30.12 "HgN/A
3:20 PM64 °FScattered clouds.6 mph73%30.12 "HgN/A
2:20 PM64 °FScattered clouds.6 mph78%30.15 "HgN/A
1:20 PM63 °FBroken clouds.6 mph88%30.18 "HgN/A
12:20 PM61 °FBroken clouds.6 mph94%30.18 "HgN/A
11:20 AM61 °FPartly sunny.8 mph88%30.18 "HgN/A
Weather by CustomWeather, © 2014

See weather overviewHow to use our weather pages